Showing default

BRO-11, 58264

Orbit data source: Space-Track

BRO-11, 58264 is a payload satellite owned by Unseen Labs (FR) in SSO that was launched on Sat, 11 Nov 2023 UTC via an FALCON 9 launch vehicle from the Air Force Western Test Range (AFWTR). Payload-class satellites include a variety of spacecraft equipped with specific instruments for various scientific and technological missions. These include communications satellites like Starlink; space stations such as the ISS; scientific satellites like the Hubble; Earth observation satellites from companies like Planet Labs, Umbra, and HawkEye 360; GPS; miniature CubeSats for education and research; and military/defense satellites.

Loading next visibility...
Identifier
58264, 2023-174J
Orbit
SSO
Country
Flag of FRFR
Related business
Manufacturer
GOMSpace
Mission
Operational Commercial Sigint
Bus & Motor
CUBESAT 6U, Unknown motor
Mass
10 kg wet, ~10 kg dry
Launch date (UTC)
2023-11-11 (2 years ago)
Launch vehicle
FALCON 9
Launch site
Air Force Western Test Range (AFWTR)
Object type
Payload
Rocket body
Debris
Shape & HBR
Box, 0.1 m
Radar Cross Section
0.080 m², Medium (>0.1 m² and < 1m²)

Expand to show TLE details & history
Last TLE update: 5 hours ago

TLE from 5 hours ago
0 BRO-11
1 58264U 23174J   26126.96711948  .00005400  00000-0  20655-3 0  9994
2 58264  97.3903 204.2012 0010088   3.0689 357.0610 15.26959347138467
Epoch: 2026-05-06T23:12Z
TLE epoch observation values (Epoch: 2026-05-06T23:12:39.123Z)
Latitude
Longitude
-8.78183°
Altitude
481.093 km
Speed
7.629 km/s
True Right ascension
13h 36m 48s
True Declination
0° 00' 00"
Sunlit
Object was in full shadow at epoch
Visualization orbit readout
Latitude
Unknown
Longitude
Unknown
Altitude
Unknown
Speed
Unknown
Apparent Right ascension
Unknown
Apparent Declination
Unknown
Sunlit
N/A
Visualization observer readout
Local Sidereal Time
12:09:30
Azimuth
Unknown
Elevation
Unknown
Doppler factor
Unknown
Orbital elements
Apogee altitude
488.784 km
Perigee altitude
474.944 km
Semi-major axis
6,860.001 km
Eccentricity
0.00101
Inclination
97.3903°
RAAN
204.2012°
Arg. of periapsis
3.0689°
True anomaly
357.05507°
Mean anomaly
357.061°
Eccentric anomaly
357.05803°
Mean motion
3.81994 °/min
Orbital period
94.24 mins
BSTAR
0.00020655
Loading maneuver chart data...
Computing Atmospheric mass density...
Loading historical data...
Loading historical data...
Loading historical data...
Loading historical data...
Loading historical data...
Loading historical data...
Loading historical data...

Documentation

Showing up to 5 results
|